�N����,����,�~����,�C��,���x,�C��,����,���ϕ���,�ő�u�ԕ���,�ő厞����,���˗�,�I�_���x,�n�����x,�ő啗���N��,DTYPE
"23/04/11","00:10",0.0,13.6,75.3,1014.0,336.1,1.0,1.9,339.7,0.00,9.4,13.9,"00:09:30",1
"23/04/11","00:20",0.0,13.4,76.8,1014.2,321.8,1.3,3.1,352.9,0.00,9.5,14.0,"00:12:12",1
"23/04/11","00:30",0.0,13.1,78.5,1014.2,335.5,1.5,2.4,311.9,0.00,9.5,13.9,"00:28:14",1
"23/04/11","00:40",0.0,12.7,80.2,1014.0,332.9,1.5,2.1,335.1,0.00,9.4,13.9,"00:36:38",1
"23/04/11","00:50",0.0,12.2,81.5,1014.0,314.6,1.6,2.5,314.6,0.00,9.2,13.9,"00:42:56",1
"23/04/11","01:00",0.0,11.8,82.7,1014.0,313.3,1.7,2.1,316.0,0.00,9.0,14.0,"00:50:22",1
"23/04/11","01:10",0.0,11.7,83.9,1014.0,305.8,1.7,2.6,316.2,0.00,9.1,13.9,"01:08:44",1
"23/04/11","01:20",0.0,11.6,85.1,1014.0,315.8,2.3,2.8,334.3,0.00,9.2,13.7,"01:15:50",1
"23/04/11","01:30",0.0,11.3,85.8,1014.0,300.2,1.3,2.4,322.7,0.00,9.1,13.7,"01:26:22",1
"23/04/11","01:40",0.0,11.2,86.5,1014.0,289.2,1.5,2.4,316.0,0.00,9.1,13.7,"01:37:14",1
"23/04/11","01:50",0.0,11.1,87.1,1013.8,330.8,2.3,2.9,336.1,0.00,9.1,13.9,"01:47:20",1
"23/04/11","02:00",0.0,10.9,87.7,1014.2,323.0,1.8,2.7,339.4,0.00,9.0,13.8,"01:51:02",1
"23/04/11","02:10",0.0,10.8,88.5,1014.0,301.2,1.7,2.4,308.1,0.00,9.0,13.7,"02:09:36",1
"23/04/11","02:20",0.0,10.5,88.9,1014.0,303.4,1.8,2.4,316.8,0.00,8.8,13.8,"02:10:40",1
"23/04/11","02:30",0.0,10.3,89.4,1014.0,319.2,1.8,2.2,325.9,0.00,8.7,13.7,"02:23:04",1
"23/04/11","02:40",0.0,10.0,89.7,1013.5,305.3,1.7,2.4,322.2,0.00,8.4,13.6,"02:33:20",1
"23/04/11","02:50",0.0,10.0,90.3,1013.8,303.8,1.5,2.1,279.1,0.00,8.5,13.4,"02:45:32",1
"23/04/11","03:00",0.0,9.9,90.6,1013.8,312.0,1.8,2.4,324.3,0.00,8.5,13.6,"02:51:28",1
"23/04/11","03:10",0.0,9.8,91.0,1013.8,302.1,2.0,2.6,323.3,0.00,8.4,13.5,"03:03:38",1
"23/04/11","03:20",0.0,10.0,91.3,1013.8,300.1,2.2,3.1,315.8,0.00,8.7,13.6,"03:18:16",1
"23/04/11","03:30",0.0,9.9,91.4,1014.0,299.0,2.1,2.8,293.5,0.00,8.6,13.4,"03:20:08",1
"23/04/11","03:40",0.0,9.9,91.6,1013.8,301.8,2.6,3.3,320.9,0.00,8.6,13.4,"03:31:44",1
"23/04/11","03:50",0.0,10.0,91.7,1014.0,294.5,2.3,3.2,316.3,0.00,8.8,13.2,"03:44:48",1
"23/04/11","04:00",0.0,10.0,91.7,1014.0,305.3,2.3,3.5,321.2,0.00,8.8,13.3,"03:53:20",1
"23/04/11","04:10",0.0,9.8,91.8,1013.8,303.1,1.6,2.5,299.9,0.00,8.6,13.2,"04:04:24",1
"23/04/11","04:20",0.0,9.5,92.0,1014.0,319.6,1.7,2.6,297.8,0.00,8.3,13.1,"04:12:32",1
"23/04/11","04:30",0.0,9.1,92.0,1014.0,314.6,2.1,2.7,324.6,0.00,7.9,13.2,"04:25:36",1
"23/04/11","04:40",0.0,9.1,92.5,1014.0,301.7,2.0,2.6,309.0,0.00,8.0,13.0,"04:38:00",1
"23/04/11","04:50",0.0,9.4,92.6,1014.5,292.1,2.1,2.9,312.2,0.00,8.3,13.1,"04:48:08",1
"23/04/11","05:00",0.0,9.3,92.6,1014.2,318.9,2.1,2.7,322.4,0.00,8.2,13.1,"04:53:36",1
"23/04/11","05:10",0.0,9.1,92.8,1014.2,299.2,2.0,2.5,321.3,0.00,8.0,13.1,"05:02:08",1
"23/04/11","05:20",0.0,9.0,93.0,1014.5,297.7,1.7,2.4,300.9,0.00,8.0,13.2,"05:14:00",1
"23/04/11","05:30",0.0,8.9,93.1,1014.0,311.5,1.5,3.1,324.7,0.00,7.9,12.9,"05:22:00",1
"23/04/11","05:40",0.0,8.5,93.4,1014.2,315.1,2.3,3.1,314.3,0.00,7.5,13.2,"05:33:28",1
"23/04/11","05:50",0.0,8.3,93.5,1014.5,317.0,2.1,3.1,307.7,0.00,7.4,12.8,"05:45:52",1
"23/04/11","06:00",0.0,8.4,93.9,1014.2,306.1,2.3,2.9,323.4,0.00,7.5,13.0,"05:50:32",1
"23/04/11","06:10",0.0,8.7,94.0,1014.2,292.5,2.3,3.1,319.9,0.00,7.8,13.0,"06:08:32",1
"23/04/11","06:20",0.0,8.9,94.1,1014.2,300.0,2.3,3.3,313.0,0.00,8.0,12.7,"06:13:04",1
"23/04/11","06:30",0.0,8.9,94.1,1014.2,321.6,2.2,2.9,319.2,0.00,8.0,12.7,"06:22:40",1
"23/04/11","06:40",0.0,8.6,94.2,1014.5,293.6,1.2,2.0,279.0,0.00,7.8,12.9,"06:37:12",1
"23/04/11","06:50",0.0,8.7,94.5,1014.5,306.4,1.5,3.2,318.1,0.00,7.9,12.7,"06:49:04",1
"23/04/11","07:00",0.0,8.7,94.6,1014.5,301.6,1.1,2.6,322.1,0.01,7.9,12.7,"06:50:16",1
"23/04/11","07:10",0.0,9.0,94.8,1014.7,324.2,2.1,2.6,330.3,0.02,8.3,12.6,"07:08:32",1
"23/04/11","07:20",0.0,9.7,94.8,1014.5,305.3,1.3,2.6,335.4,0.03,8.9,12.6,"07:10:56",1
"23/04/11","07:30",0.0,10.5,94.8,1014.5,290.6,1.1,2.0,318.1,0.04,9.7,12.5,"07:22:52",1
"23/04/11","07:40",0.0,11.3,94.6,1014.5,286.4,0.7,1.4,307.1,0.06,10.5,12.6,"07:32:56",1
"23/04/11","07:50",0.0,11.7,94.2,1014.9,310.1,0.5,1.2,320.7,0.08,10.8,12.6,"07:40:08",1
"23/04/11","08:00",0.0,11.9,93.5,1015.2,34.0,0.5,1.1,310.0,0.11,10.9,12.7,"07:50:26",1
"23/04/11","08:10",0.0,12.7,93.0,1015.2,212.9,0.3,0.9,311.3,0.13,11.6,12.4,"08:09:58",1
"23/04/11","08:20",0.0,13.6,91.3,1015.4,252.0,0.6,1.1,102.6,0.16,12.2,12.5,"08:10:56",1
"23/04/11","08:30",0.0,14.6,89.7,1015.9,302.0,0.3,1.1,93.9,0.18,13.0,12.4,"08:25:52",1
"23/04/11","08:40",0.0,15.1,85.2,1015.6,71.2,0.5,0.9,105.6,0.21,12.7,12.7,"08:30:48",1
"23/04/11","08:50",0.0,15.9,78.8,1015.9,271.5,0.6,1.2,325.4,0.23,12.3,12.5,"08:43:28",1
"23/04/11","09:00",0.0,16.5,73.5,1015.4,258.2,0.6,1.4,247.9,0.26,11.8,12.7,"08:53:20",1
"23/04/11","09:10",0.0,16.9,69.4,1015.2,110.9,0.7,2.1,112.2,0.28,11.3,12.6,"09:08:08",1
"23/04/11","09:20",0.0,17.8,67.9,1014.9,34.5,0.6,1.8,70.0,0.31,11.8,12.8,"09:12:16",1
"23/04/11","09:30",0.0,17.8,65.5,1014.5,178.5,1.1,2.2,139.7,0.33,11.3,12.8,"09:26:56",1
"23/04/11","09:40",0.0,18.0,65.5,1014.7,166.4,1.2,2.6,175.8,0.36,11.5,12.6,"09:32:16",1
"23/04/11","09:50",0.0,18.2,64.6,1014.2,178.4,1.5,2.7,112.1,0.38,11.5,12.6,"09:40:02",1
"23/04/11","10:00",0.0,18.0,63.9,1013.8,122.7,1.7,3.9,116.2,0.41,11.1,13.0,"09:57:12",1
"23/04/11","10:10",0.0,18.3,63.1,1013.8,80.1,1.7,3.6,118.6,0.45,11.2,13.1,"10:04:40",1
"23/04/11","10:20",0.0,18.5,62.2,1013.8,108.3,2.1,3.7,112.6,0.46,11.2,13.0,"10:11:04",1
"23/04/11","10:30",0.0,19.6,64.2,1013.8,128.4,2.2,4.3,118.0,0.49,12.7,13.1,"10:26:48",1
"23/04/11","10:40",0.0,20.2,62.5,1013.5,167.9,2.0,3.7,140.4,0.51,12.9,13.3,"10:31:28",1
"23/04/11","10:50",0.0,20.3,61.6,1013.5,168.8,2.2,4.2,142.8,0.51,12.7,13.2,"10:46:56",1
"23/04/11","11:00",0.0,20.0,62.0,1013.3,158.2,2.6,4.8,129.3,0.37,12.5,13.6,"10:58:32",1
"23/04/11","11:10",0.0,19.9,61.7,1013.5,160.1,2.6,4.9,125.6,0.38,12.4,13.3,"11:06:48",1
"23/04/11","11:20",0.0,20.0,64.2,1013.5,150.7,2.1,4.3,131.8,0.26,13.1,13.5,"11:10:08",1
"23/04/11","11:30",0.0,20.0,63.6,1013.5,217.6,3.0,6.6,207.2,0.27,12.9,13.5,"11:29:04",1
"23/04/11","11:40",0.0,20.1,65.0,1013.5,249.6,2.8,6.6,297.0,0.26,13.4,13.6,"11:33:20",1
"23/04/11","11:50",0.0,20.9,63.9,1013.0,227.0,3.0,7.1,234.1,0.52,13.9,13.6,"11:49:36",1
"23/04/11","12:00",0.0,21.1,62.5,1012.8,209.7,2.8,5.2,237.9,0.39,13.7,13.7,"11:59:20",1
"23/04/11","12:10",0.0,21.3,62.0,1012.8,171.4,2.3,5.2,144.6,0.39,13.8,13.9,"12:01:44",1
"23/04/11","12:20",0.0,21.3,62.1,1012.3,169.0,2.2,5.0,123.7,0.29,13.8,13.8,"12:14:40",1
"23/04/11","12:30",0.0,21.1,62.1,1012.3,206.5,1.8,4.3,255.0,0.26,13.6,14.1,"12:29:44",1
"23/04/11","12:40",0.0,21.7,59.0,1012.1,241.0,2.8,5.6,214.4,0.39,13.4,13.8,"12:38:00",1
"23/04/11","12:50",0.0,22.0,58.7,1012.1,248.1,2.6,7.3,292.7,0.33,13.6,14.2,"12:43:36",1
"23/04/11","13:00",0.0,22.0,58.2,1011.6,229.1,2.0,4.8,258.1,0.27,13.5,14.3,"12:59:52",1
"23/04/11","13:10",0.0,22.0,56.7,1011.6,232.9,2.2,5.8,232.6,0.27,13.1,14.3,"13:02:08",1
"23/04/11","13:20",0.0,22.1,57.2,1011.4,194.3,3.1,5.7,205.3,0.40,13.3,14.1,"13:17:28",1
"23/04/11","13:30",0.0,22.9,57.0,1010.9,209.2,3.1,7.1,237.1,0.50,14.0,14.5,"13:24:56",1
"23/04/11","13:40",0.0,23.1,54.7,1010.4,223.9,3.4,5.8,220.6,0.59,13.5,14.7,"13:34:40",1
"23/04/11","13:50",0.0,22.9,54.6,1010.4,199.7,4.2,7.1,171.6,0.57,13.3,14.4,"13:43:28",1
"23/04/11","14:00",0.0,23.1,54.1,1010.2,215.3,3.1,4.9,243.9,0.55,13.4,14.6,"13:51:04",1
"23/04/11","14:10",0.0,23.2,52.6,1010.2,219.1,2.8,6.0,233.9,0.47,13.0,14.5,"14:08:56",1
"23/04/11","14:20",0.0,22.8,51.6,1010.0,203.6,3.9,8.1,240.2,0.38,12.4,14.8,"14:16:56",1
"23/04/11","14:30",0.0,22.9,53.6,1009.5,214.4,3.1,6.5,150.9,0.35,13.0,14.9,"14:22:32",1
"23/04/11","14:40",0.0,22.9,54.0,1009.3,216.3,2.6,6.0,233.6,0.35,13.1,14.9,"14:34:24",1
"23/04/11","14:50",0.0,22.6,55.3,1009.0,218.2,2.2,4.5,232.2,0.21,13.2,15.0,"14:40:32",1
"23/04/11","15:00",0.0,22.9,54.5,1008.8,211.6,2.6,5.2,187.8,0.31,13.3,15.0,"14:58:40",1
"23/04/11","15:10",0.0,22.9,54.4,1008.8,228.4,2.5,6.7,212.8,0.28,13.3,15.2,"15:08:32",1
"23/04/11","15:20",0.2,23.0,54.1,1008.6,209.5,2.5,7.5,219.9,0.26,13.3,15.2,"15:10:56",1
"23/04/11","15:30",0.0,23.7,52.9,1008.3,202.6,2.5,5.2,237.6,0.42,13.6,15.2,"15:25:12",1
"23/04/11","15:40",0.0,24.1,50.5,1008.3,243.8,2.2,5.1,306.8,0.43,13.2,15.2,"15:36:48",1
"23/04/11","15:50",0.0,23.6,50.1,1008.1,253.8,3.0,5.8,251.4,0.38,12.6,15.2,"15:47:12",1
"23/04/11","16:00",0.0,23.8,50.6,1007.8,272.1,2.6,5.2,276.5,0.34,13.0,15.5,"15:53:12",1
"23/04/11","16:10",0.0,23.7,49.5,1007.8,266.8,3.0,4.8,284.7,0.32,12.6,15.5,"16:02:56",1
"23/04/11","16:20",0.0,23.4,50.0,1008.3,244.1,4.0,7.3,241.0,0.28,12.4,15.5,"16:15:04",1
"23/04/11","16:30",0.0,23.5,48.6,1008.3,263.7,3.0,6.3,246.1,0.26,12.1,15.4,"16:26:48",1
"23/04/11","16:40",0.0,23.7,48.6,1008.3,244.0,3.1,5.8,242.4,0.24,12.3,15.7,"16:33:28",1
"23/04/11","16:50",0.0,23.2,48.8,1008.1,262.9,3.6,6.2,234.2,0.22,11.9,15.5,"16:42:56",1
"23/04/11","17:00",0.0,23.0,48.6,1008.3,261.8,3.2,6.6,252.3,0.19,11.6,15.7,"16:52:00",1
"23/04/11","17:10",0.0,23.0,46.5,1007.6,261.8,3.4,5.7,259.0,0.17,11.0,15.7,"17:04:48",1
"23/04/11","17:20",0.0,22.8,48.3,1008.1,255.5,3.5,6.0,237.4,0.15,11.4,15.5,"17:15:52",1
"23/04/11","17:30",0.0,22.7,48.7,1008.3,268.9,2.8,5.2,253.6,0.12,11.4,16.0,"17:21:04",1
"23/04/11","17:40",0.0,22.5,45.6,1008.3,250.7,3.4,6.2,244.9,0.10,10.2,15.8,"17:36:32",1
"23/04/11","17:50",0.0,22.1,45.1,1008.8,266.2,3.4,7.2,246.4,0.08,9.7,15.8,"17:49:44",1
"23/04/11","18:00",0.0,21.7,45.9,1008.3,274.8,3.9,7.0,286.7,0.06,9.6,15.7,"17:53:04",1
"23/04/11","18:10",0.0,21.3,46.6,1008.1,268.5,4.1,6.8,310.4,0.04,9.5,15.8,"18:03:28",1
"23/04/11","18:20",0.0,21.0,48.0,1008.8,275.3,3.9,6.8,279.2,0.03,9.6,15.9,"18:12:48",1
"23/04/11","18:30",0.0,20.7,48.5,1008.6,269.3,4.1,6.5,274.9,0.01,9.5,15.8,"18:24:34",1
"23/04/11","18:40",0.0,20.3,49.8,1008.6,266.4,3.5,6.7,251.6,0.01,9.5,15.8,"18:35:28",1
"23/04/11","18:50",0.0,20.1,50.8,1008.6,264.7,3.2,5.5,247.8,0.00,9.6,15.8,"18:43:36",1
"23/04/11","19:00",0.0,19.9,51.0,1008.3,262.6,3.6,9.1,290.6,0.00,9.5,15.7,"18:59:36",1
"23/04/11","19:10",0.0,19.6,52.2,1008.6,260.6,3.0,6.5,241.1,0.00,9.6,15.9,"19:07:44",1
"23/04/11","19:20",0.0,19.5,53.1,1008.8,272.4,3.2,7.1,304.9,0.00,9.7,15.7,"19:14:08",1
"23/04/11","19:30",0.0,19.3,54.0,1009.0,246.5,3.1,5.8,268.5,0.00,9.8,15.7,"19:21:28",1
"23/04/11","19:40",0.0,19.0,54.7,1009.0,269.0,1.6,5.9,248.8,0.00,9.7,15.6,"19:31:12",1
"23/04/11","19:50",0.0,19.0,55.5,1009.3,259.4,1.6,5.4,226.0,0.00,9.9,15.7,"19:46:32",1
"23/04/11","20:00",0.0,18.9,55.8,1009.5,182.5,1.8,4.5,133.7,0.00,9.9,15.7,"19:52:24",1
"23/04/11","20:10",0.0,19.0,56.4,1010.0,172.7,2.7,4.8,192.6,0.00,10.2,15.6,"20:00:48",1
"23/04/11","20:20",0.0,18.9,56.9,1010.2,186.3,1.8,4.3,169.9,0.00,10.2,15.3,"20:17:44",1
"23/04/11","20:30",0.0,18.7,57.8,1010.2,192.9,1.2,2.5,191.6,0.00,10.3,15.4,"20:21:12",1
"23/04/11","20:40",0.0,18.5,58.4,1010.4,227.8,1.5,2.8,257.5,0.00,10.2,15.5,"20:36:16",1
"23/04/11","20:50",0.0,18.6,58.3,1010.9,243.9,1.8,5.6,262.4,0.00,10.3,15.3,"20:49:12",1
"23/04/11","21:00",0.0,18.4,58.7,1011.2,259.0,1.0,3.4,235.7,0.00,10.2,15.2,"20:50:24",1
"23/04/11","21:10",0.0,18.0,60.5,1011.4,240.3,0.7,1.8,206.3,0.00,10.3,15.3,"21:06:00",1
"23/04/11","21:20",0.0,17.7,62.9,1011.4,322.7,1.5,2.8,339.0,0.00,10.6,15.2,"21:19:28",1
"23/04/11","21:30",0.0,17.0,65.3,1011.4,309.1,1.5,2.5,341.9,0.00,10.5,15.3,"21:20:48",1
"23/04/11","21:40",0.0,16.9,66.6,1011.6,293.9,1.5,2.9,342.9,0.00,10.7,15.3,"21:39:20",1
"23/04/11","21:50",0.0,16.4,68.6,1011.6,328.9,1.6,3.2,321.5,0.00,10.7,15.3,"21:46:18",1
"23/04/11","22:00",0.0,16.3,70.2,1011.6,329.5,1.3,2.5,336.5,0.00,10.9,15.2,"21:57:20",1
"23/04/11","22:10",0.0,16.1,70.9,1011.6,325.9,1.3,2.4,329.3,0.00,10.9,15.1,"22:00:52",1
"23/04/11","22:20",0.0,16.0,71.4,1011.9,295.4,1.8,3.3,311.5,0.00,10.9,15.2,"22:12:16",1
"23/04/11","22:30",0.0,16.1,72.0,1011.9,326.8,1.2,2.5,330.5,0.00,11.1,15.2,"22:21:00",1
"23/04/11","22:40",0.0,15.9,72.8,1011.9,307.2,1.3,2.1,307.0,0.00,11.1,15.0,"22:31:54",1
"23/04/11","22:50",0.0,15.8,73.9,1011.6,327.0,1.6,2.5,321.7,0.00,11.2,15.1,"22:46:08",1
"23/04/11","23:00",0.0,15.7,75.6,1011.6,329.7,1.6,2.7,322.0,0.00,11.4,15.1,"22:54:16",1
"23/04/11","23:10",0.0,15.7,76.5,1011.6,359.6,1.1,2.1,342.0,0.00,11.6,15.2,"23:04:08",1
"23/04/11","23:20",0.0,16.0,76.6,1011.6,318.7,0.8,2.0,352.6,0.00,11.9,15.0,"23:11:54",1
"23/04/11","23:30",0.0,16.3,75.8,1011.6,298.6,2.0,3.4,342.9,0.00,12.1,15.0,"23:23:58",1
"23/04/11","23:40",0.0,16.9,74.6,1011.6,313.0,2.0,3.3,271.4,0.00,12.4,14.9,"23:37:36",1
"23/04/11","23:50",0.0,17.2,73.4,1011.9,321.1,1.5,3.1,342.3,0.00,12.4,14.8,"23:43:44",1
"23/04/11","24:00",0.0,17.3,73.1,1011.9,315.1,1.6,2.5,338.4,0.00,12.5,15.0,"23:58:32",1
